Retour au catalogue

STARLINK-31464

ActifCommunicationsVLEO
NORAD 59318·PAYLOAD·🇺🇸 United States

Lancé Mar 24, 2024 depuis Cape Canaveral Space Force Station

Loading…

Prochains Passages (prochaines 24 heures)

TLE

FraisSource: CelesTrak SupGP

Époque: Sep 14, 2026, 22:31 UTC

1 59318C 24056Y   26257.93868056  .00027904  00000+0  10107-2 0  2579
2 59318  43.0002 241.7542 0001352 262.0187 309.9657 15.27562804    19

Suivez STARLINK-31464 en temps réel avec AllMySat

Download on the App Store